Regional Weather Roundup
Issued by NWS New Orleans/Baton Rouge, LA

Home | Current Version | Previous Version | Text Only | Print | Product List | Glossary Off
Versions: 1 2 3 4 5 6 7 8 9 10 11 12 13 14 15 16 17 18 19 20 21 22 23 24 25 26 27 28 29 30 31 32 33 34 35 36 37 38 39 40 41 42 43 44 45 46 47 48 49 50

693
ASUS44 KLIX 301410
RWRLIX
NEW ORLEANS REGIONAL WEATHER ROUNDUP
NATIONAL WEATHER SERVICE NEW ORLEANS LA
900 AM CDT THU OCT 30 2014

NOTE: "FAIR" INDICATES FEW OR NO CLOUDS BELOW 12,000 FEET WITH NO
      SIGNIFICANT WEATHER AND/OR OBSTRUCTIONS TO VISIBILITY.
      SKY/WX - SKY CONDITION AND SIGNIFICANT WEATHER.
      TMP - AIR TEMPERATURE.     DP    - DEWPOINT TEMPERATURE.
      RH  - RELATIVE HUMIDITY.   PRES  - PRESSURE.
      HI  - HEAT INDEX.          WCI   - WIND CHILL INDEX.

*  THESE STATIONS ARE NOT NWS OR FAA STATIONS AND ARE NOT UNDER
   NWS QUALITY CONTROL.

LAZ038-040-048-061>063-065>067-069-301500-
SOUTHEAST LOUISIANA

CITY           SKY/WX    TMP DP  RH WIND       PRES   REMARKS
N.O. AUDUBON     N/A     68  46  45 MISG        N/A
N.O. INTL ARPT MOSUNNY   65  46  50 NE23      30.12R
N.O. LAKEFRONT SUNNY     65  49  56 NE17      30.12R
N.O. DOWNTOWN*   N/A     63  41  45 NE6       30.12R
SLIDELL        SUNNY     60  46  59 NE8       30.12R
BATON ROUGE    SUNNY     57  46  66 NE7       30.14R
BOOTHVILLE     SUNNY     70  58  65 N12G18    30.08R
BELLE CHASSE   MOSUNNY   65  45  48 NE9       30.11R
BOGALUSA*        N/A     57  46  65 NE8       30.15R
NEW ROADS*       N/A     58  47  67 NE5       30.15R
GONZALES*        N/A     59  48  67 NE5       30.13R
HAMMOND*       NOT AVBL
HOUMA*         SUNNY     64  52  63 NE9       30.10R
PORT FOURCHON* CLOUDY    70  57  64 NE12G18   30.12R

$$

MSZ070-080>082-301500-
SOUTHERN MISSISSIPPI

CITY           SKY/WX    TMP DP  RH WIND       PRES   REMARKS
MCCOMB         SUNNY     57  41  55 NE7       30.14R
GULFPORT       SUNNY     60  44  55 N8        30.11R
BILOXI         SUNNY     60  46  59 NE9       30.11R
PASCAGOULA     SUNNY     60  48  64 N8        30.11R
STENNIS ARPT*  SUNNY     59  41  51 NE7       30.12R

$$

COASTAL OBSERVATIONS
LAKE AND NEARSHORE STATIONS

STATION/POSITION TIME  TEMP    WIND        PRES    WAVE
                       AIR SEA DIR/SP/G            HT/PER
                 (UTC) (F)     (DEG/KT/KT) (MB)    (FT/S)
PASCAGOULA       1400   60      20/  7/ 11 1018.7
WAVELAND YACHT   1400   59      30/ 10/ 12 1019.0
GRAND ISLE       1400   69 76   40/ 12/ 17 1019.2
SOUTHWEST PASS   1400   71 78              1018.3
NEW CANAL        1400   64 71   50/ 16/ 19 1020.0
SHELL BEACH      1400   65 68   40/ 17/ 20 1019.2

OFFSHORE STATIONS

STATION/POSITION TIME  TEMP    WIND        PRES    WAVE
                       AIR SEA DIR/SP/G            HT/PER
                 (UTC) (F)     (DEG/KT/KT) (MB)    (FT/S)
64 S DAUPHIN ISL 1332   71 78   30/ 16/ 17 1017.8    3/ 6

$$




USA.gov is the U.S. government's official web portal to all federal, state and local government web resources and services.